Regional Weather Roundup
Issued by NWS

Home | Current Version | Previous Version | Graphics & Text | Print | Product List | Glossary On
Versions: 1 2 3 4 5 6 7 8 9 10 11 12 13 14 15 16 17 18 19 20 21 22 23 24 25 26 27 28 29 30 31 32 33 34 35 36 37 38 39 40 41 42 43 44 45 46 47 48 49 50
000
ASUS43 KFSD 020702
RWRSD

WEATHER ROUNDUP FOR SOUTH DAKOTA
NATIONAL WEATHER SERVICE SIOUX FALLS SD
200 AM CDT THU JUL 02 2015

NOTE: "FAIR" INDICATES FEW OR NO CLOUDS BELOW 12,000 FEET WITH NO
SIGNIFICANT WEATHER AND/OR OBSTRUCTIONS TO VISIBILITY.


SDZ001>005-009-010-012>017-020800-
NORTHWEST AND NORTH CENTRAL SOUTH DAKOTA

CITY           SKY/WX    TMP DP  RH WIND       PRES   REMARKS
BUFFALO          N/A     63  61  93 N7        29.96F
FAITH            N/A     65  62  90 CALM      30.00R
MOBRIDGE       CLOUDY    68  68 100 SE6       29.92F
$$

SDZ012>016-024>037-041>051-057-063-072>074-020800-
SOUTHWEST AND SOUTH CENTRAL SOUTH DAKOTA

CITY           SKY/WX    TMP DP  RH WIND       PRES   REMARKS
RAPID CTY ARPT CLOUDY    63  60  90 W8        30.05S
PIERRE         CLOUDY    68  66  93 SE6       29.93R
CUSTER         CLOUDY    57  54  89 E6        30.20R
ELLSWORTH AFB  CLOUDY    63  62  95 SW8       30.04F
PHILIP         LGT RAIN  68  65  90 SW3       29.97F
PINE RIDGE     TSTM      67  65  93 VRB3      30.11R FOG
WINNER         FAIR      68  63  84 SE5       29.96R
$$

SDZ004>011-016>023-039-040-020800-
NORTHEAST SOUTH DAKOTA

CITY           SKY/WX    TMP DP  RH WIND       PRES   REMARKS
ABERDEEN       MOCLDY    62  57  83 SE7       29.95F
WATERTOWN      PTCLDY    60  53  77 SE5       29.98F
BROOKINGS      CLEAR     59  54  82 SE10      29.99F
SISSETON         N/A     58  54  86 SW5       29.98S
$$

SDZ017-020-022-023-036>040-048>070-020800-
SOUTHEAST SOUTH DAKOTA

CITY           SKY/WX    TMP DP  RH WIND       PRES   REMARKS
SIOUX FALLS    CLEAR     60  55  83 E8        29.97F
HURON          CLOUDY    63  58  83 SE9       29.95S
MITCHELL       PTCLDY    63  58  83 E8        29.95F
YANKTON        PTCLDY    63  57  82 E9        29.94S
$$

ABBREVIATIONS USED IN REMARKS
   TC - TEMPERATURE IN CELSIUS
  WCI - WIND CHILL INDEX
   HX - HEAT INDEX
  VSB - VISIBILITY




USA.gov is the U.S. government's official web portal to all federal, state and local government web resources and services.